EW4281 Weather Reports


time (UTC)temp
C
wind
direction
speed
KPH
gust
KPH
rain 1hr
cm
rain 24hr
cm
rain mn
cm
humidity
%
barometer
mb
20260901080551 15 176 0.0 0.0 0.00 0.08 0.00 88 1006.8
20260901075615 15 42 0.0 3.2 0.00 0.08 0.00 87 1006.3
20260901074608 15 56 0.0 0.0 0.00 0.08 0.00 86 1006.4
20260901073545 15 56 0.0 0.0 0.00 0.08 0.00 85 1006.5
20260901072608 15 56 0.0 1.6 0.00 0.08 0.00 84 1006.4
20260901070447 15 248 0.0 0.0 0.00 0.08 0.00 78 1006.4
20260901064251 17 318 0.0 3.2 0.00 0.08 0.00 69 1006.0
20260901063226 17 138 0.0 1.6 0.00 0.08 0.00 70 1006.0
20260901062156 16 141 0.0 1.6 0.00 0.08 0.00 68 1006.0
20260901061215 16 140 0.0 4.8 0.00 0.08 0.00 71 1005.8
20260901060227 16 113 1.6 8.0 0.00 0.08 0.00 72 1005.5
20260901055156 16 102 3.2 8.0 0.00 0.08 0.08 74 1005.4
20260901054122 16 108 1.6 6.4 0.00 0.08 0.08 76 1005.4
20260901053146 16 102 1.6 6.4 0.00 0.08 0.08 76 1005.6
20260901052210 15 82 1.6 6.4 0.00 0.08 0.08 76 1005.7
20260901051224 15 89 1.6 6.4 0.00 0.08 0.08 78 1005.9
20260901050213 15 89 3.2 8.0 0.00 0.08 0.08 78 1006.3
20260901045140 16 91 1.6 8.0 0.00 0.08 0.08 78 1006.9
20260901044136 16 218 0.0 4.8 0.00 0.05 0.05 74 1007.1
20260901042040 16 162 0.0 4.8 0.00 0.05 0.05 70 1006.5
20260901035858 17 87 3.2 9.7 0.00 0.05 0.05 66 1005.6
20260901034857 17 58 3.2 9.7 0.00 0.05 0.05 68 1005.8
20260901033856 17 104 1.6 6.4 0.00 0.05 0.05 68 1005.8
20260901032915 17 80 3.2 11.3 0.00 0.05 0.05 69 1005.7
20260901031922 17 98 3.2 14.5 0.00 0.05 0.05 70 1005.9
20260901030918 17 153 3.2 14.5 0.00 0.05 0.05 71 1005.9
20260901025914 17 193 0.0 6.4 0.00 0.05 0.05 72 1005.9
20260901024905 17 130 1.6 6.4 0.00 0.05 0.05 74 1005.5
20260901022807 17 49 0.0 4.8 0.00 0.05 0.05 74 1004.9
20260901020742 17 50 1.6 14.5 0.00 0.05 0.05 76 1004.6
20260901013523 16 48 0.0 8.0 0.00 0.05 0.05 78 1004.5
20260831234119 22 131 8.0 27.4 0.00 0.00 0.00 48 1002.2
20260831231916 21 131 3.2 17.7 0.00 0.00 0.00 47 1001.9
20260831230845 21 132 6.4 17.7 0.00 0.00 0.00 48 1001.9
20260831225848 22 108 6.4 16.1 0.00 0.00 0.00 48 1002.0
20260831224855 22 84 8.0 22.5 0.00 0.00 0.00 45 1002.0
20260831223840 23 86 9.7 22.5 0.00 0.00 0.00 41 1002.3
20260831221725 27 55 0.0 11.3 0.00 0.00 0.00 33 1001.4
20260831215639 27 68 0.0 3.2 0.00 0.00 0.00 34 1001.5
20260831213518 27 300 1.6 19.3 0.00 0.00 0.00 33 1001.5
20260831212501 28 42 3.2 14.5 0.00 0.00 0.00 32 1001.6
20260831210351 27 160 3.2 9.7 0.00 0.00 0.00 33 1001.9
20260831205339 28 211 3.2 14.5 0.00 0.00 0.00 29 1002.0
20260831204305 30 205 1.6 19.3 0.00 0.00 0.00 28 1001.8
20260831203316 28 148 4.8 19.3 0.00 0.00 0.00 29 1002.2
20260831202306 30 136 3.2 8.0 0.00 0.00 0.00 28 1002.1
20260831201316 31 86 1.6 12.9 0.00 0.00 0.00 27 1002.1
20260831200330 30 248 1.6 12.9 0.00 0.00 0.00 27 1002.2
20260831194225 30 229 0.0 11.3 0.00 0.00 0.00 28 1002.6
20260831192123 28 289 1.6 9.7 0.00 0.00 0.00 30 1003.0
20260831191129 27 256 1.6 11.3 0.00 0.00 0.00 30 1003.1
20260831190129 27 279 1.6 11.3 0.00 0.00 0.00 31 1003.3
20260831185148 27 294 1.6 8.0 0.00 0.00 0.00 31 1003.4
20260831184208 28 229 0.0 8.0 0.00 0.00 0.00 30 1003.5
20260831183146 27 338 1.6 11.3 0.00 0.00 0.00 30 1003.5
20260831182201 28 311 1.6 11.3 0.00 0.00 0.00 30 1003.8
20260831181220 28 284 0.0 9.7 0.00 0.00 0.00 30 1004.1
20260831175059 27 308 1.6 12.9 0.00 0.00 0.00 32 1004.5
20260831174031 26 313 3.2 17.7 0.00 0.00 0.00 34 1004.5
20260831173033 26 280 3.2 17.7 0.00 0.00 0.00 34 1004.6
20260831172058 26 46 0.0 6.4 0.00 0.00 0.00 32 1004.6
20260831171025 27 221 0.0 8.0 0.00 0.00 0.00 33 1004.7
20260831170031 26 333 1.6 9.7 0.00 0.00 0.00 34 1004.8
20260831165001 26 278 0.0 17.7 0.00 0.00 0.00 34 1004.9
20260831163945 25 76 3.2 17.7 0.00 0.00 0.00 34 1004.8
20260831161720 25 12 0.0 8.0 0.00 0.00 0.00 38 1004.8
20260831160724 23 331 0.0 8.0 0.00 0.00 0.00 40 1004.9
20260831153316 22 301 0.0 4.8 0.00 0.00 0.00 44 1005.2
20260831152256 22 82 0.0 6.4 0.00 0.00 0.00 46 1005.5
20260831151241 20 30 0.0 4.8 0.00 0.00 0.00 50 1005.6
20260831150227 20 86 0.0 6.4 0.00 0.00 0.00 51 1005.8
20260831145226 18 302 0.0 1.6 0.00 0.00 0.00 54 1005.8
20260831142021 18 310 0.0 8.0 0.00 0.00 0.00 57 1006.1
20260831135939 18 75 0.0 3.2 0.00 0.00 0.00 58 1006.0
20260831133822 17 340 0.0 6.4 0.00 0.00 0.00 57 1006.2
20260831110744 16 334 0.0 0.0 0.00 0.00 0.00 57 1004.7
20260831104622 17 68 0.0 0.0 0.00 0.00 0.00 57 1004.9
20260831103624 17 56 0.0 0.0 0.00 0.00 0.00 57 1004.9
20260831102638 17 115 0.0 14.5 0.00 0.00 0.00 57 1004.8
20260831101702 17 324 1.6 14.5 0.00 0.00 0.00 57 1004.8
20260831100704 17 290 1.6 12.9 0.00 0.00 0.00 57 1004.7
20260831094629 17 339 1.6 12.9 0.00 0.00 0.00 56 1004.3
20260831093628 17 328 1.6 9.7 0.00 0.00 0.00 56 1004.3
20260831092632 17 307 0.0 9.7 0.00 0.00 0.00 55 1004.3
20260831090540 18 53 0.0 1.6 0.00 0.00 0.00 54 1004.3
20260831085520 18 312 0.0 3.2 0.00 0.00 0.00 53 1004.4
20260831083349 18 74 0.0 3.2 0.00 0.00 0.00 52 1004.3
20260831082319 18 238 0.0 0.0 0.00 0.00 0.00 52 1004.3